User: anonymous   Login
Location: Unspecified
(0.0000°N, 0.0000°E)
Time: 21:01:27
(UTC+00:00)
Language:

VELOX C1 - Orbit

View from above orbital plane
View from above orbital plane
View from above satellite
View from above satellite

Ground track
Ground track

The orbit data is extracted from the following two-line orbital elements,

1 41166U 15077A   18321.54411032  .00001041  00000-0  22934-4 0  9993
2 41166  14.9841   4.0708 0011436 320.9928  38.9568 15.09666869161401
Epoch (UTC): 17 November 2018 13:03:31
Eccentricity: 0.0011436
inclination: 14.9841°
perigee height: 529 km
apogee height: 545 km
right ascension of ascending node: 4.0708°
argument of perigee: 320.9928°
revolutions per day: 15.09666869
mean anomaly at epoch: 38.9568°
orbit number at epoch: 16140

The dashed part of the orbit path shows where the satellite is in the earth's shadow,  

DLR